Powrót do katalogu

DELTA 1 DEB

AktywnyLEO
NORAD 18470·DEBRIS·🇺🇸 United States

Wystrzelony Nov 6, 1973 z Vandenberg Space Force Base

Loading…

Następne Przeloty (najbliższe 24 godziny)

TLE

ŚwieżeSource: Space-Track

Epoka: Sep 14, 2026, 08:54 UTC

1 18470U 73086GU  26257.37099823 -.00000242  00000-0 -21976-2 0  9994
2 18470 101.7989  42.9941 0180246 295.3231  89.5673 12.06647181830164

Śledź DELTA 1 DEB w czasie rzeczywistym z AllMySat

Download on the App Store